Location: Caltech
(34.1382°N, 118.1253°W)
Time: 11:18:41
(UTC-07:00)

Oscar 11 - Visible Passes

Search period start: 21 May 2018 00:00
Search period end: 31 May 2018 00:00
Orbit: 613 x 626 km, 97.7° (Epoch: 20 May)

Date Brightness Start Highest point End Pass type
(mag) Time Alt. Az. Time Alt. Az. Time Alt. Az.
21 May 8.3 20:53:15 10° S 20:57:22 42° W 21:01:30 10° NNW visible
22 May 9.1 21:11:00 10° SSW 21:14:38 26° W 21:18:18 10° NW visible
23 May 9.7 21:29:11 10° SW 21:31:57 17° W 21:34:43 10° NW visible
25 May 7.1 20:25:44 10° SSE 20:30:05 90° ENE 20:34:26 10° NNW visible
26 May 7.8 20:43:02 10° S 20:47:17 55° W 20:51:33 10° NNW visible
27 May 8.7 21:00:36 10° SSW 21:04:32 33° W 21:08:28 10° NNW visible
28 May 9.4 21:18:31 10° SW 21:21:49 21° W 21:25:08 10° NW visible
29 May 9.8 21:37:04 10° WSW 21:39:09 13° W 21:41:14 10° WNW visible
